User: anonymous   Login
Location: Edinburgh
(55.9500°N, 3.1600°W)
Time: 14:10:31
(UTC+00:00)
Language:

Tiangong 2 - Orbit

View from above orbital plane
View from above orbital plane
View from above satellite
View from above satellite

Ground track
Ground track

The orbit data is extracted from the following two-line orbital elements,

1 41765U 16057A   19077.09462675  .00004459  00000-0  56158-4 0  9996
2 41765  42.7833 150.1464 0008388 346.5952  87.6152 15.60947879142804
Epoch (UTC): 18 March 2019 02:16:15
Eccentricity: 0.0008388
inclination: 42.7833°
perigee height: 379 km
apogee height: 390 km
right ascension of ascending node: 150.1464°
argument of perigee: 346.5952°
revolutions per day: 15.60947879
mean anomaly at epoch: 87.6152°
orbit number at epoch: 14280

The dashed part of the orbit path shows where the satellite is in the earth's shadow,  

DLR